Rochester, NY

9:23 AM EDT on September 19, 2019 (GMT -0400)
Greater Rochester International

Weather History for KROC - July, 2019

Change the Weather History Date:

Thursday, July 18, 2019

  Actual Average Record
Temperature  
Mean Temperature 78 °F 71 °F  
Max Temperature 85 °F 81 °F 97 °F (1953)
Min Temperature 70 °F 61 °F 47 °F (1971)
Degree Days  
Heating Degree Days 0 0  
Month to date heating degree days 0 6  
Since 1 June heating degree days 48 74  
Since 1 July heating degree days 0 6  
Cooling Degree Days 13 6  
Month to date cooling degree days 162 108  
Year to date cooling degree days 255 244  
Since 1 June cooling degree days 245 214  
Growing Degree Days 27 (Base 50)    
Moisture  
Dew Point 68 °F    
Average Humidity 77    
Maximum Humidity 93    
Minimum Humidity 61    
Precipitation  
Precipitation 0.00 in 0.10 in 1.75 in (1908)
Month to date precipitation 2.49 1.88  
Year to date precipitation 18.96 17.68  
Snow  
Snow 0.00 in 0.00 in 0.00 in ()
Month to date snowfall 0.0 0.0  
Since 1 June snowfall 0.0 0.0  
Since 1 July snowfall 0.0 0.0  
Snow Depth 0.00 in    
Sea Level Pressure  
Sea Level Pressure 29.92 in    
Wind  
Wind Speed 5 mph (ENE)    
Max Wind Speed 12 mph    
Max Gust Speed 15 mph    
Visibility 10 miles    
Events      
T = Trace of Precipitation, MM = Missing Value Source: NWS Daily Summary

Daily Weather History Graph

Daily Weather History Graph

Search for Another Location

Airport or City:

Astronomy

Jul. 18, 2019 Rise Set
Actual Time 5:47 AM EDT 8:46 PM EDT
Civil Twilight 5:13 AM EDT 9:19 PM EDT
Nautical Twilight 4:30 AM EDT 10:03 PM EDT
Astronomical Twilight 3:38 AM EDT 10:53 PM EDT
Moon 10:08 PM EDT (7/18) 7:15 AM EDT (7/18)
Length of Visible Light 16h 06m
Length of Day
14h 58m
Full, 97% of the Moon is Illuminated
Jul 18
Full
Jul 24
Last Quarter
Jul 31
New
Aug 7
First Quarter
Aug 15
Full

Hourly Weather History & Observations

Time (EDT) Temp. Heat Index Dew Point Humidity Pressure Visibility Wind Dir Wind Speed Gust Speed Precip Events Conditions
12:54 AM 72.0 °F - 69.1 °F 91% 29.93 in 10.0 mi SE 4.6 mph - N/A   Scattered Clouds
1:54 AM 72.0 °F - 69.1 °F 91% 29.92 in 10.0 mi ESE 4.6 mph - N/A   Mostly Cloudy
2:54 AM 71.1 °F - 68.0 °F 90% 29.92 in 10.0 mi Calm Calm - N/A   Scattered Clouds
3:43 AM 71.1 °F - 68.0 °F 90% 29.92 in 10.0 mi NE 5.8 mph - N/A   Mostly Cloudy
3:54 AM 71.1 °F - 68.0 °F 90% 29.93 in 10.0 mi NE 6.9 mph - N/A   Mostly Cloudy
4:54 AM 71.1 °F - 68.0 °F 90% 29.94 in 10.0 mi ENE 6.9 mph - N/A   Overcast
5:54 AM 71.1 °F - 68.0 °F 90% 29.94 in 5.0 mi East 5.8 mph - N/A   Overcast
6:32 AM 71.1 °F - 68.0 °F 90% 29.95 in 10.0 mi East 5.8 mph - N/A   Overcast
6:54 AM 72.0 °F - 68.0 °F 87% 29.94 in 6.0 mi ENE 3.5 mph - N/A   Overcast
7:54 AM 72.0 °F - 68.0 °F 87% 29.96 in 6.0 mi ENE 3.5 mph - N/A   Overcast
8:41 AM 73.0 °F - 68.0 °F 84% 29.96 in 10.0 mi NE 4.6 mph - N/A   Overcast
8:54 AM 73.9 °F - 68.0 °F 82% 29.96 in 10.0 mi NE 3.5 mph - N/A   Overcast
9:54 AM 75.9 °F - 68.0 °F 76% 29.97 in 10.0 mi NE 5.8 mph - N/A   Mostly Cloudy
10:08 AM 75.9 °F - 68.0 °F 76% 29.97 in 10.0 mi North 5.8 mph - N/A   Mostly Cloudy
10:54 AM 75.0 °F - 66.9 °F 76% 29.96 in 10.0 mi SSE 4.6 mph - N/A   Mostly Cloudy
11:28 AM 78.1 °F - 66.9 °F 68% 29.95 in 10.0 mi Calm Calm - N/A   Mostly Cloudy
11:54 AM 80.1 °F 82.7 °F 68.0 °F 67% 29.94 in 10.0 mi Calm Calm - N/A   Mostly Cloudy
12:54 PM 81.0 °F 83.3 °F 66.9 °F 62% 29.92 in 10.0 mi Variable 3.5 mph - N/A   Scattered Clouds
1:54 PM 82.9 °F 85.8 °F 68.0 °F 60% 29.92 in 10.0 mi Variable 3.5 mph - N/A   Mostly Cloudy
2:54 PM 82.9 °F 85.8 °F 68.0 °F 60% 29.92 in 10.0 mi WNW 5.8 mph - N/A   Mostly Cloudy
3:54 PM 84.0 °F 88.4 °F 70.0 °F 63% 29.92 in 10.0 mi NNE 8.1 mph - N/A   Mostly Cloudy
4:54 PM 82.9 °F 86.5 °F 69.1 °F 63% 29.89 in 10.0 mi NNE 8.1 mph - N/A   Scattered Clouds
5:54 PM 82.9 °F 86.5 °F 69.1 °F 63% 29.88 in 10.0 mi NE 5.8 mph - N/A   Partly Cloudy
6:54 PM 82.0 °F 84.9 °F 68.0 °F 62% 29.86 in 10.0 mi ENE 6.9 mph - N/A   Partly Cloudy
7:54 PM 81.0 °F 83.8 °F 68.0 °F 65% 29.85 in 10.0 mi East 6.9 mph - N/A   Mostly Cloudy
8:54 PM 78.1 °F - 68.0 °F 71% 29.85 in 10.0 mi ESE 5.8 mph - N/A   Scattered Clouds
9:54 PM 78.1 °F - 69.1 °F 74% 29.86 in 10.0 mi ESE 3.5 mph - N/A   Partly Cloudy
10:54 PM 75.0 °F - 69.1 °F 82% 29.87 in 10.0 mi Calm Calm - N/A   Scattered Clouds
11:54 PM 73.9 °F - 70.0 °F 87% 29.85 in 10.0 mi South 3.5 mph - N/A   Scattered Clouds